EW4155 Weather Reports


time (UTC)temp
C
wind
direction
speed
KPH
gust
KPH
rain 1hr
cm
rain 24hr
cm
rain mn
cm
humidity
%
barometer
mb
20260509135006 23 316 1.6 9.7 0.00 0.00 0.00 83 1010.4
20260509134514 23 285 4.8 9.7 0.00 0.00 0.00 82 1010.4
20260509134006 23 133 4.8 11.3 0.00 0.00 0.00 82 1010.4
20260509133506 22 297 1.6 12.9 0.00 0.00 0.00 84 1010.3
20260509133019 23 345 4.8 12.9 0.00 0.00 0.00 84 1010.2
20260509132513 23 269 8.0 12.9 0.00 0.00 0.00 83 1010.2
20260509132010 23 4 1.6 6.4 0.00 0.00 0.00 85 1010.0
20260509131524 23 300 3.2 4.8 0.00 0.00 0.00 86 1010.0
20260509131014 23 320 0.0 4.8 0.00 0.00 0.00 87 1009.8
20260509130512 23 255 0.0 4.8 0.00 0.00 0.00 89 1009.8
20260509130024 22 155 0.0 0.0 0.00 0.00 0.00 91 1009.7
20260509125513 22 155 0.0 0.0 0.00 0.00 0.00 92 1009.8
20260509125012 22 155 0.0 0.0 0.00 0.00 0.00 92 1009.8
20260509124534 21 155 0.0 0.0 0.00 0.00 0.00 92 1009.8
20260509124012 21 155 0.0 0.0 0.00 0.00 0.00 93 1009.9
20260509123506 21 155 0.0 0.0 0.00 0.00 0.00 94 1009.9
20260509123018 21 155 0.0 0.0 0.00 0.00 0.00 95 1010.0
20260509122508 20 155 0.0 0.0 0.00 0.00 0.00 94 1009.9
20260509122006 20 155 0.0 1.6 0.00 0.00 0.00 94 1010.0
20260509121504 20 155 0.0 1.6 0.00 0.00 0.00 94 1010.0
20260509121004 20 134 0.0 1.6 0.00 0.00 0.00 94 1010.2
20260509120504 20 146 0.0 0.0 0.00 0.00 0.00 94 1010.1
20260509120006 20 243 0.0 0.0 0.00 0.00 0.00 94 1010.2
20260509115506 20 243 0.0 0.0 0.00 0.00 0.00 94 1010.1
20260509115006 20 243 0.0 1.6 0.00 0.00 0.00 94 1010.1
20260509114508 20 243 0.0 1.6 0.00 0.00 0.00 94 1010.1
20260509114005 20 245 0.0 1.6 0.00 0.00 0.00 94 1010.2
20260509113505 20 206 0.0 1.6 0.00 0.00 0.00 94 1010.2
20260509113010 20 257 0.0 3.2 0.00 0.00 0.00 94 1010.2
20260509112507 20 282 0.0 3.2 0.00 0.00 0.00 94 1010.0
20260509112008 21 282 0.0 6.4 0.00 0.00 0.00 94 1010.0
20260509111534 21 280 1.6 9.7 0.00 0.00 0.00 95 1009.9
20260509111010 20 277 3.2 9.7 0.00 0.00 0.00 95 1009.8
20260509110502 20 295 4.8 9.7 0.00 0.00 0.00 96 1009.8
20260509110004 20 255 1.6 14.5 0.00 0.00 0.00 96 1009.6
20260509105503 20 264 4.8 14.5 0.00 0.00 0.00 96 1009.6
20260509105005 20 329 3.2 14.5 0.00 0.00 0.00 96 1009.5
20260509104516 20 304 4.8 14.5 0.00 0.00 0.00 96 1009.5
20260509104008 20 316 4.8 11.3 0.00 0.00 0.00 96 1009.1
20260509103506 20 237 6.4 14.5 0.00 0.00 0.00 96 1008.1
20260509103011 20 211 4.8 14.5 0.00 0.00 0.00 96 1008.0
20260509102510 20 205 1.6 12.9 0.00 0.00 0.00 96 1007.7
20260509102006 20 94 4.8 12.9 0.00 0.00 0.00 96 1007.8
20260509101527 20 185 4.8 12.9 0.00 0.00 0.00 96 1007.7
20260509101007 20 227 3.2 14.5 0.00 0.00 0.00 96 1007.6
20260509100505 20 132 4.8 14.5 0.00 0.00 0.00 96 1007.3
20260509100022 20 203 4.8 14.5 0.00 0.00 0.00 96 1007.3
20260509095508 20 192 6.4 16.1 0.00 0.00 0.00 96 1007.2
20260509095004 20 148 4.8 16.1 0.00 0.00 0.00 96 1007.2
20260509094504 20 153 6.4 16.1 0.00 0.00 0.00 96 1007.2
20260509094004 20 169 3.2 16.1 0.00 0.00 0.00 96 1007.3
20260509093503 20 206 6.4 17.7 0.00 0.00 0.00 96 1007.4
20260509093009 20 165 8.0 17.7 0.00 0.00 0.00 96 1007.3
20260509092503 20 177 8.0 14.5 0.00 0.00 0.00 96 1007.5
20260509092006 20 88 6.4 16.1 0.00 0.00 0.00 95 1007.5
20260509091516 20 190 4.8 16.1 0.00 0.00 0.00 95 1007.5
20260509091006 20 101 3.2 14.5 0.00 0.00 0.00 95 1007.8
20260509090507 20 174 8.0 14.5 0.00 0.00 0.00 95 1008.1
20260509090017 20 228 4.8 11.3 0.00 0.00 0.00 95 1008.3
20260509085507 20 143 3.2 12.9 0.00 0.00 0.00 95 1008.4
20260509085007 20 184 3.2 12.9 0.00 0.00 0.00 95 1008.3
20260509084523 20 197 6.4 12.9 0.00 0.00 0.00 95 1008.6
20260509084007 20 212 1.6 8.0 0.00 0.00 0.00 94 1008.5
20260509083503 20 211 1.6 4.8 0.00 0.00 0.00 94 1009.0
20260509083009 20 217 0.0 6.4 0.00 0.00 0.00 94 1009.3
20260509082508 20 205 3.2 9.7 0.00 0.00 0.00 94 1009.3
20260509082004 20 208 3.2 9.7 0.00 0.00 0.00 94 1009.6
20260509081510 20 210 3.2 8.0 0.00 0.00 0.00 94 1009.7
20260509081005 20 209 1.6 8.0 0.00 0.00 0.00 94 1009.8
20260509080507 20 165 3.2 8.0 0.00 0.00 0.00 95 1010.3
20260509080017 20 241 3.2 6.4 0.00 0.00 0.00 95 1011.2
20260509075507 20 242 1.6 8.0 0.00 0.00 0.00 95 1011.1
20260509075007 20 243 1.6 8.0 0.00 0.00 0.00 95 1011.3
20260509074523 20 276 0.0 3.2 0.00 0.00 0.00 95 1011.2
20260509074011 20 218 1.6 4.8 0.00 0.00 0.00 95 1011.2
20260509073506 20 259 1.6 4.8 0.00 0.00 0.00 95 1011.4
20260509073026 20 276 0.0 0.0 0.00 0.00 0.00 95 1011.3
20260509072511 20 255 0.0 0.0 0.00 0.00 0.00 95 1011.1
20260509072004 20 285 0.0 0.0 0.00 0.00 0.00 95 1011.1
20260509071510 20 282 0.0 0.0 0.00 0.00 0.00 95 1010.9
20260509071004 20 219 0.0 1.6 0.00 0.00 0.00 95 1010.8
20260509070504 20 215 0.0 1.6 0.00 0.00 0.00 95 1010.7
20260509070013 20 222 0.0 1.6 0.00 0.00 0.00 96 1011.1
20260509065508 20 222 0.0 0.0 0.00 0.00 0.00 96 1011.3
20260509065008 20 217 0.0 0.0 0.00 0.00 0.00 96 1011.4
20260509064528 20 201 0.0 0.0 0.00 0.00 0.00 96 1011.5
20260509064008 20 202 0.0 0.0 0.00 0.00 0.00 95 1011.1
20260509063509 19 201 0.0 0.0 0.00 0.00 0.00 95 1011.1
20260509063023 19 202 0.0 0.0 0.00 0.00 0.00 95 1011.0
20260509062511 19 202 0.0 0.0 0.00 0.00 0.00 95 1010.9
20260509062010 19 201 0.0 1.6 0.00 0.00 0.00 94 1010.9
20260509061536 19 201 0.0 1.6 0.00 0.00 0.00 94 1010.8
20260509061006 20 202 0.0 1.6 0.00 0.00 0.00 95 1010.5
20260509060504 20 202 0.0 0.0 0.00 0.00 0.00 94 1010.4
20260509060010 20 202 0.0 0.0 0.00 0.00 0.00 94 1010.3
20260509055505 20 202 0.0 0.0 0.00 0.00 0.00 93 1010.2
20260509055005 20 202 0.0 0.0 0.00 0.00 0.00 93 1010.1
20260509054518 20 202 0.0 0.0 0.00 0.00 0.00 93 1010.2
20260509054007 20 202 0.0 1.6 0.00 0.00 0.00 94 1010.3
20260509053506 20 202 0.0 1.6 0.00 0.00 0.00 94 1010.2
20260509053030 20 200 0.0 1.6 0.00 0.00 0.00 94 1010.3
20260509052508 20 127 0.0 1.6 0.00 0.00 0.00 93 1010.3
20260509052009 20 119 0.0 3.2 0.00 0.00 0.00 93 1010.1
20260509051523 20 146 0.0 4.8 0.00 0.00 0.00 93 1010.1
20260509051012 20 143 0.0 4.8 0.00 0.00 0.00 93 1010.2
20260509050509 20 166 0.0 3.2 0.00 0.00 0.00 92 1010.2
20260509050025 20 158 0.0 1.6 0.00 0.00 0.00 92 1010.4
20260509045503 20 148 0.0 0.0 0.00 0.00 0.00 92 1010.7
20260509045003 20 148 0.0 0.0 0.00 0.00 0.00 91 1010.6
20260509044514 20 148 0.0 0.0 0.00 0.00 0.00 91 1010.7
20260509044005 20 148 0.0 0.0 0.00 0.00 0.00 91 1010.7
20260509043508 20 148 0.0 0.0 0.00 0.00 0.00 91 1010.6
20260509043021 21 148 0.0 0.0 0.00 0.00 0.00 91 1010.6
20260509042507 21 148 0.0 0.0 0.00 0.00 0.00 90 1010.5
20260509042010 21 148 0.0 0.0 0.00 0.00 0.00 90 1010.3
20260509041524 21 148 0.0 0.0 0.00 0.00 0.00 90 1010.3
20260509041009 21 148 0.0 0.0 0.00 0.00 0.00 89 1010.2
20260509040511 21 148 0.0 0.0 0.00 0.00 0.00 89 1010.1
20260509040026 21 148 0.0 0.0 0.00 0.00 0.00 89 1010.2
20260509035509 21 148 0.0 0.0 0.00 0.00 0.00 89 1010.2
20260509035010 21 148 0.0 0.0 0.00 0.00 0.00 89 1010.3
20260509034534 21 148 0.0 0.0 0.00 0.00 0.00 89 1010.4
20260509034007 21 148 0.0 0.0 0.00 0.00 0.00 89 1010.3
20260509033506 21 148 0.0 0.0 0.00 0.00 0.00 89 1010.1
20260509033015 21 148 0.0 1.6 0.00 0.00 0.00 89 1010.0
20260509032511 21 120 0.0 1.6 0.00 0.00 0.00 88 1010.0
20260509032016 21 120 0.0 3.2 0.00 0.00 0.00 88 1009.8
20260509031520 21 120 0.0 3.2 0.00 0.00 0.00 88 1009.7
20260509031009 21 134 0.0 1.6 0.00 0.00 0.00 88 1009.5
20260509030509 21 167 0.0 0.0 0.00 0.00 0.00 88 1009.5
20260509030023 21 122 0.0 0.0 0.00 0.00 0.00 88 1009.6
20260509025511 21 122 0.0 0.0 0.00 0.00 0.00 87 1009.7
20260509025016 21 122 0.0 0.0 0.00 0.00 0.00 87 1009.7
20260509024506 22 122 0.0 0.0 0.00 0.00 0.00 87 1009.8
20260509024009 22 122 0.0 0.0 0.00 0.00 0.00 87 1009.8
20260509023504 22 122 0.0 0.0 0.00 0.00 0.00 87 1009.6
20260509023012 22 122 0.0 0.0 0.00 0.00 0.00 87 1009.5
20260509022505 22 122 0.0 0.0 0.00 0.00 0.00 87 1009.5
20260509022007 22 122 0.0 0.0 0.00 0.00 0.00 86 1009.3
20260509021516 22 122 0.0 0.0 0.00 0.00 0.00 87 1009.3
20260509021003 22 129 0.0 0.0 0.00 0.00 0.00 87 1009.3
20260509020507 22 117 0.0 0.0 0.00 0.00 0.00 86 1009.3
20260509020003 22 119 0.0 0.0 0.00 0.00 0.00 86 1009.1
20260509015503 22 122 0.0 0.0 0.00 0.00 0.00 86 1009.1
20260509015006 22 122 0.0 0.0 0.00 0.00 0.00 86 1009.1
20260509014507 22 122 0.0 0.0 0.00 0.00 0.00 86 1009.1
20260509014003 22 119 0.0 1.6 0.00 0.00 0.00 85 1009.1
20260509013506 22 120 0.0 1.6 0.00 0.00 0.00 85 1009.1
20260509013010 22 210 0.0 0.0 0.00 0.00 0.00 85 1009.1
20260509012507 22 210 0.0 0.0 0.00 0.00 0.00 84 1009.1
20260509012006 22 210 0.0 0.0 0.00 0.00 0.00 84 1009.1
20260509011516 22 210 0.0 0.0 0.00 0.00 0.00 84 1009.1
20260509011010 22 210 0.0 0.0 0.00 0.00 0.00 83 1009.0
20260509010508 22 210 0.0 3.2 0.00 0.00 0.00 83 1008.7
20260509010025 22 210 0.0 3.2 0.00 0.00 0.00 83 1008.5
20260509005508 22 223 0.0 3.2 0.00 0.00 0.00 82 1008.5
20260509005003 23 202 0.0 4.8 0.00 0.00 0.00 82 1008.6
20260509004506 23 167 0.0 4.8 0.00 0.00 0.00 81 1008.6
20260509004005 23 195 1.6 4.8 0.00 0.00 0.00 80 1008.7
20260509003504 23 205 0.0 6.4 0.00 0.00 0.00 79 1008.7
20260509003007 24 214 0.0 6.4 0.00 0.00 0.00 78 1008.6
20260509002506 24 119 0.0 6.4 0.00 0.00 0.00 77 1008.6
20260509002006 25 184 0.0 8.0 0.00 0.00 0.00 77 1008.5
20260509001512 25 186 0.0 8.0 0.00 0.00 0.00 76 1008.4
20260509001007 25 120 3.2 8.0 0.00 0.00 0.00 75 1008.3
20260509000509 25 123 0.0 3.2 0.00 0.00 0.00 76 1008.5
20260509000016 25 122 1.6 3.2 0.00 0.00 0.00 75 1008.5
20260508235506 25 147 0.0 8.0 0.00 0.00 0.00 77 1008.4
20260508235007 25 207 1.6 9.7 0.00 0.00 0.00 77 1008.4
20260508234521 25 167 0.0 11.3 0.00 0.00 0.00 77 1008.4
20260508234003 25 157 3.2 11.3 0.00 0.00 0.00 77 1008.5
20260508233504 25 15 1.6 11.3 0.00 0.00 0.00 76 1008.5
20260508233006 25 150 3.2 12.9 0.00 0.00 0.00 77 1008.5
20260508232504 25 124 3.2 12.9 0.00 0.00 0.00 76 1008.5
20260508232006 25 115 1.6 11.3 0.00 0.00 0.00 77 1008.6
20260508231513 25 219 0.0 11.3 0.00 0.00 0.00 78 1008.7
20260508231009 25 226 4.8 11.3 0.00 0.00 0.00 77 1008.6
20260508230503 25 223 3.2 16.1 0.00 0.00 0.00 77 1008.6
20260508230014 24 214 6.4 16.1 0.00 0.00 0.00 77 1008.6
20260508225507 24 102 6.4 12.9 0.00 0.00 0.00 77 1008.7
20260508225006 24 155 3.2 12.9 0.00 0.00 0.00 77 1008.8
20260508224526 24 140 4.8 12.9 0.00 0.00 0.00 76 1008.8
20260508224009 24 136 4.8 11.3 0.00 0.00 0.00 76 1008.8
20260508223508 24 204 6.4 14.5 0.00 0.00 0.00 76 1008.8
20260508223014 24 160 1.6 14.5 0.00 0.00 0.00 77 1008.9
20260508222507 24 82 4.8 16.1 0.00 0.00 0.00 77 1008.9
20260508222004 24 117 1.6 16.1 0.00 0.00 0.00 77 1008.9
20260508221510 24 103 3.2 11.3 0.00 0.00 0.00 77 1009.0
20260508221007 23 184 3.2 14.5 0.00 0.00 0.00 78 1009.2
20260508220504 23 176 6.4 14.5 0.00 0.00 0.00 78 1009.3
20260508220011 24 129 3.2 11.3 0.00 0.00 0.00 75 1009.4
20260508215508 24 172 3.2 9.7 0.00 0.00 0.00 75 1009.4
20260508215009 24 237 0.0 14.5 0.00 0.00 0.00 77 1009.4
20260508214520 23 212 3.2 14.5 0.00 0.00 0.00 77 1009.2
20260508214008 23 150 4.8 19.3 0.00 0.00 0.00 78 1008.9
20260508213507 23 222 4.8 25.7 0.00 0.00 0.00 79 1008.7
20260508213022 22 231 6.4 25.7 0.00 0.00 0.00 79 1008.9
20260508212507 22 198 9.7 20.9 0.00 0.00 0.00 81 1009.0
20260508212009 22 107 8.0 25.7 0.00 0.00 0.00 81 1009.2
20260508211507 22 124 12.9 25.7 0.00 0.00 0.00 82 1009.3
20260508211008 21 162 8.0 19.3 0.00 0.00 0.00 82 1009.3
20260508210504 21 166 6.4 17.7 0.00 0.00 0.00 82 1009.4
20260508210012 21 103 8.0 17.7 0.00 0.00 0.00 83 1009.6
20260508205507 20 76 6.4 16.1 0.00 0.00 0.00 84 1010.0
20260508205003 20 136 6.4 11.3 0.00 0.00 0.00 82 1010.3
20260508204516 20 94 3.2 11.3 0.00 0.00 0.00 82 1010.5
20260508204011 20 115 0.0 11.3 0.00 0.00 0.00 81 1010.6
20260508203508 20 184 3.2 8.0 0.00 0.00 0.00 80 1010.8
20260508203025 21 115 1.6 8.0 0.00 0.00 0.00 79 1011.0
20260508202507 21 212 1.6 8.0 0.00 0.00 0.00 78 1011.2
20260508202009 21 136 1.6 9.7 0.00 0.00 0.00 79 1011.0
20260508201523 21 214 1.6 9.7 0.00 0.00 0.00 79 1011.1
20260508201008 21 90 1.6 8.0 0.00 0.00 0.00 77 1011.4
20260508200509 21 226 0.0 11.3 0.00 0.00 0.00 76 1011.5
20260508200007 21 190 4.8 11.3 0.00 0.00 0.00 75 1011.6
20260508195506 22 244 1.6 9.7 0.00 0.00 0.00 75 1011.4
20260508195005 22 214 0.0 6.4 0.00 0.00 0.00 77 1011.1
20260508194515 21 158 1.6 6.4 0.00 0.00 0.00 77 1011.0
20260508194007 21 132 0.0 8.0 0.00 0.00 0.00 77 1011.1
20260508193507 21 177 0.0 8.0 0.00 0.00 0.00 76 1011.2
20260508193017 21 236 0.0 11.3 0.00 0.00 0.00 76 1011.2
20260508192506 21 203 4.8 11.3 0.00 0.00 0.00 75 1011.2
20260508192009 21 123 1.6 9.7 0.00 0.00 0.00 76 1011.2
20260508191534 21 212 1.6 8.0 0.00 0.00 0.00 76 1011.2
20260508191009 21 161 1.6 12.9 0.00 0.00 0.00 75 1011.4
20260508190506 21 100 3.2 12.9 0.00 0.00 0.00 75 1011.6
20260508190030 21 214 1.6 11.3 0.00 0.00 0.00 75 1011.5
20260508185509 21 129 4.8 11.3 0.00 0.00 0.00 75 1011.6
20260508185010 21 157 4.8 12.9 0.00 0.00 0.00 75 1011.6
20260508184510 21 204 3.2 12.9 0.00 0.00 0.00 75 1011.8
20260508184002 21 167 3.2 11.3 0.00 0.00 0.00 75 1012.0
20260508183509 21 117 1.6 11.3 0.00 0.00 0.00 75 1012.0
20260508183016 21 174 1.6 8.0 0.00 0.00 0.00 75 1012.1
20260508182508 21 127 1.6 11.3 0.00 0.00 0.00 75 1012.3
20260508182008 21 115 3.2 11.3 0.00 0.00 0.00 74 1012.4
20260508181523 21 148 0.0 12.9 0.00 0.00 0.00 74 1012.4
20260508181007 21 157 3.2 12.9 0.00 0.00 0.00 73 1012.4
20260508180508 21 91 1.6 12.9 0.00 0.00 0.00 72 1012.4
20260508180024 21 193 1.6 9.7 0.00 0.00 0.00 74 1012.4
20260508175512 21 133 1.6 11.3 0.00 0.00 0.00 75 1012.4
20260508175013 21 131 3.2 11.3 0.00 0.00 0.00 74 1012.4
20260508174507 21 103 4.8 16.1 0.00 0.00 0.00 74 1012.4
20260508174003 21 108 4.8 16.1 0.00 0.00 0.00 74 1012.3
20260508173503 21 97 9.7 14.5 0.00 0.00 0.00 73 1012.5
20260508173011 21 67 4.8 14.5 0.00 0.00 0.00 73 1012.7
20260508172507 21 121 1.6 12.9 0.00 0.00 0.00 73 1012.8
20260508172010 21 135 4.8 14.5 0.00 0.00 0.00 73 1012.8
20260508171519 21 126 6.4 14.5 0.00 0.00 0.00 72 1012.9
20260508171009 21 125 4.8 14.5 0.00 0.00 0.00 74 1012.9
20260508170506 21 129 6.4 16.1 0.00 0.00 0.00 73 1012.9
20260508170022 21 167 8.0 16.1 0.00 0.00 0.00 72 1013.0
20260508165511 21 103 6.4 19.3 0.00 0.00 0.00 72 1013.2
20260508165004 21 127 8.0 19.3 0.00 0.00 0.00 73 1013.2
20260508164504 21 148 6.4 19.3 0.00 0.00 0.00 73 1013.2
20260508164006 20 205 8.0 19.3 0.00 0.00 0.00 74 1013.3
20260508163503 20 99 9.7 19.3 0.00 0.00 0.00 74 1013.3
20260508163009 20 98 8.0 16.1 0.00 0.00 0.00 74 1013.3
20260508162507 20 103 6.4 11.3 0.00 0.00 0.00 77 1013.4
20260508162004 20 101 6.4 11.3 0.00 0.00 0.00 77 1013.5
20260508161512 20 91 1.6 8.0 0.00 0.00 0.00 77 1013.7
20260508161008 20 100 3.2 8.0 0.00 0.00 0.00 76 1013.8
20260508160507 20 116 3.2 8.0 0.00 0.00 0.00 76 1014.1
20260508160020 20 78 3.2 8.0 0.00 0.00 0.00 75 1014.0
20260508155510 20 103 1.6 6.4 0.00 0.00 0.00 76 1014.0
20260508155008 19 115 1.6 4.8 0.00 0.00 0.00 78 1014.1
20260508154522 18 103 0.0 8.0 0.00 0.00 0.00 77 1014.2
20260508154013 18 94 0.0 8.0 0.00 0.00 0.00 78 1014.2
20260508153503 18 106 0.0 4.8 0.00 0.00 0.00 79 1014.4
20260508153008 18 104 0.0 4.8 0.00 0.00 0.00 79 1014.5
20260508152507 18 141 0.0 1.6 0.00 0.00 0.00 78 1014.5
20260508152003 18 91 0.0 6.4 0.00 0.00 0.00 79 1014.5
20260508151515 18 113 0.0 6.4 0.00 0.00 0.00 79 1014.5
20260508151009 18 107 1.6 6.4 0.00 0.00 0.00 79 1014.4
20260508150507 18 113 0.0 8.0 0.00 0.00 0.00 79 1014.5
20260508150020 18 108 3.2 9.7 0.00 0.00 0.00 78 1014.4
20260508145507 18 100 6.4 9.7 0.00 0.00 0.00 78 1014.4
20260508145007 18 121 3.2 8.0 0.00 0.00 0.00 78 1014.4
20260508144521 18 94 1.6 11.3 0.00 0.00 0.00 78 1014.4
20260508144007 18 79 4.8 11.3 0.00 0.00 0.00 77 1014.4
20260508143510 18 104 1.6 6.4 0.00 0.00 0.00 79 1014.4
20260508143024 18 94 3.2 11.3 0.00 0.00 0.00 78 1014.4
20260508142511 18 153 4.8 11.3 0.00 0.00 0.00 78 1014.4
20260508142003 18 124 4.8 9.7 0.00 0.00 0.00 79 1014.3
20260508141509 17 139 3.2 9.7 0.00 0.00 0.00 80 1014.3
20260508141006 17 116 4.8 9.7 0.00 0.00 0.00 80 1014.3
20260508140509 17 96 4.8 8.0 0.00 0.00 0.00 80 1014.3
20260508140016 17 84 3.2 8.0 0.00 0.00 0.00 81 1014.4
20260508135514 17 71 4.8 9.7 0.00 0.00 0.00 80 1014.4